Year,Month,Day,Hour,Minute,Value (Times are PST for temperature in C)
2008,08,14,00,00,15.40
2008,08,14,00,01,15.40
2008,08,14,00,02,15.40
2008,08,14,00,03,15.40
2008,08,14,00,04,15.40
2008,08,14,00,05,15.40
2008,08,14,00,06,15.40
2008,08,14,00,07,15.40
2008,08,14,00,08,15.40
2008,08,14,00,09,15.30
2008,08,14,00,10,15.30
2008,08,14,00,11,15.30
2008,08,14,00,12,15.30
2008,08,14,00,13,15.30
2008,08,14,00,14,15.30
2008,08,14,00,15,15.40
2008,08,14,00,16,15.30
2008,08,14,00,17,15.40
2008,08,14,00,18,15.40
2008,08,14,00,19,15.40
2008,08,14,00,20,15.40
2008,08,14,00,21,15.40
2008,08,14,00,22,15.40
2008,08,14,00,23,15.40
2008,08,14,00,24,15.40
2008,08,14,00,25,15.40
2008,08,14,00,26,15.40
2008,08,14,00,27,15.40
2008,08,14,00,28,15.40
2008,08,14,00,29,15.30
2008,08,14,00,30,15.30
2008,08,14,00,31,15.20
2008,08,14,00,32,15.20
2008,08,14,00,33,15.10
2008,08,14,00,34,15.00
2008,08,14,00,35,15.00
2008,08,14,00,36,15.00
2008,08,14,00,37,15.00
2008,08,14,00,38,15.00
2008,08,14,00,39,15.00
2008,08,14,00,40,15.00
2008,08,14,00,41,14.90
2008,08,14,00,42,14.90
2008,08,14,00,43,14.90
2008,08,14,00,44,14.80
2008,08,14,00,45,14.80
2008,08,14,00,46,14.80
2008,08,14,00,47,14.80
2008,08,14,00,48,14.80
2008,08,14,00,49,14.80
2008,08,14,00,50,14.80
2008,08,14,00,51,14.80
2008,08,14,00,52,14.80
2008,08,14,00,53,14.80
2008,08,14,00,54,14.80
2008,08,14,00,55,14.80
2008,08,14,00,56,14.80
2008,08,14,00,57,14.70
2008,08,14,00,58,14.70
2008,08,14,00,59,14.70
2008,08,14,01,00,14.70
2008,08,14,01,01,14.70
2008,08,14,01,02,14.70
2008,08,14,01,03,14.70
2008,08,14,01,04,14.70
2008,08,14,01,05,14.70
2008,08,14,01,06,14.70
2008,08,14,01,07,14.70
2008,08,14,01,08,14.70
2008,08,14,01,09,14.70
2008,08,14,01,10,14.70
2008,08,14,01,11,14.70
2008,08,14,01,12,14.70
2008,08,14,01,13,14.70
2008,08,14,01,14,14.70
2008,08,14,01,15,14.70
2008,08,14,01,16,14.70
2008,08,14,01,17,14.70
2008,08,14,01,18,14.70
2008,08,14,01,19,14.70
2008,08,14,01,20,14.70
2008,08,14,01,21,14.70
2008,08,14,01,22,14.70
2008,08,14,01,23,14.70
2008,08,14,01,24,14.70
2008,08,14,01,25,14.70
2008,08,14,01,26,14.70
2008,08,14,01,27,14.70
2008,08,14,01,28,14.70
2008,08,14,01,29,14.70
2008,08,14,01,30,14.70
2008,08,14,01,31,14.70
2008,08,14,01,32,14.70
2008,08,14,01,33,14.60
2008,08,14,01,34,14.60
2008,08,14,01,35,14.60
2008,08,14,01,36,14.50
2008,08,14,01,37,14.40
2008,08,14,01,38,14.40
2008,08,14,01,39,14.40
2008,08,14,01,40,14.30
2008,08,14,01,41,14.30
2008,08,14,01,42,14.30
2008,08,14,01,43,14.30
2008,08,14,01,44,14.30
2008,08,14,01,45,14.20
2008,08,14,01,46,14.20
2008,08,14,01,47,14.20
2008,08,14,01,48,14.20
2008,08,14,01,49,14.20
2008,08,14,01,50,14.20
2008,08,14,01,51,14.20
2008,08,14,01,52,14.20
2008,08,14,01,53,14.20
2008,08,14,01,54,14.20
2008,08,14,01,55,14.20
2008,08,14,01,56,14.20
2008,08,14,01,57,14.20
2008,08,14,01,58,14.20
2008,08,14,01,59,14.20
2008,08,14,02,00,14.20
2008,08,14,02,01,14.20
2008,08,14,02,02,14.20
2008,08,14,02,03,14.20
2008,08,14,02,04,14.20
2008,08,14,02,05,14.20
2008,08,14,02,06,14.20
2008,08,14,02,07,14.20
2008,08,14,02,08,14.20
2008,08,14,02,09,14.10
2008,08,14,02,10,14.10
2008,08,14,02,11,14.10
2008,08,14,02,12,14.00
2008,08,14,02,13,14.00
2008,08,14,02,14,13.90
2008,08,14,02,15,13.90
2008,08,14,02,16,13.90
2008,08,14,02,17,13.90
2008,08,14,02,18,13.90
2008,08,14,02,19,13.90
2008,08,14,02,20,13.90
2008,08,14,02,21,13.90
2008,08,14,02,22,13.90
2008,08,14,02,23,13.90
2008,08,14,02,24,14.00
2008,08,14,02,25,14.00
2008,08,14,02,26,14.00
2008,08,14,02,27,14.00
2008,08,14,02,28,14.00
2008,08,14,02,29,14.00
2008,08,14,02,30,14.00
2008,08,14,02,31,14.00
2008,08,14,02,32,14.00
2008,08,14,02,33,14.00
2008,08,14,02,34,14.00
2008,08,14,02,35,14.00
2008,08,14,02,36,13.90
2008,08,14,02,37,13.90
2008,08,14,02,38,13.90
2008,08,14,02,39,13.90
2008,08,14,02,40,13.90
2008,08,14,02,41,13.80
2008,08,14,02,42,13.80
2008,08,14,02,43,13.80
2008,08,14,02,44,13.80
2008,08,14,02,45,13.80
2008,08,14,02,46,13.70
2008,08,14,02,47,13.70
2008,08,14,02,48,13.70
2008,08,14,02,49,13.70
2008,08,14,02,50,13.70
2008,08,14,02,51,13.70
2008,08,14,02,52,13.70
2008,08,14,02,53,13.70
2008,08,14,02,54,13.70
2008,08,14,02,55,13.70
2008,08,14,02,56,13.70
2008,08,14,02,57,13.70
2008,08,14,02,58,13.70
2008,08,14,02,59,13.70
2008,08,14,03,00,13.70
2008,08,14,03,01,13.70
2008,08,14,03,02,13.70
2008,08,14,03,03,13.70
2008,08,14,03,04,13.70
2008,08,14,03,05,13.70
2008,08,14,03,06,13.70
2008,08,14,03,07,13.70
2008,08,14,03,08,13.70
2008,08,14,03,09,13.70
2008,08,14,03,10,13.70
2008,08,14,03,11,13.70
2008,08,14,03,12,13.70
2008,08,14,03,13,13.70
2008,08,14,03,14,13.70
2008,08,14,03,15,13.70
2008,08,14,03,16,13.70
2008,08,14,03,17,13.70
2008,08,14,03,18,13.70
2008,08,14,03,19,13.60
2008,08,14,03,20,13.60
2008,08,14,03,21,13.60
2008,08,14,03,22,13.60
2008,08,14,03,23,13.60
2008,08,14,03,24,13.60
2008,08,14,03,25,13.50
2008,08,14,03,26,13.50
2008,08,14,03,27,13.50
2008,08,14,03,28,13.40
2008,08,14,03,29,13.40
2008,08,14,03,30,13.40
2008,08,14,03,31,13.40
2008,08,14,03,32,13.40
2008,08,14,03,33,13.40
2008,08,14,03,34,13.30
2008,08,14,03,35,13.30
2008,08,14,03,36,13.30
2008,08,14,03,37,13.30
2008,08,14,03,38,13.30
2008,08,14,03,39,13.30
2008,08,14,03,40,13.30
2008,08,14,03,41,13.20
2008,08,14,03,42,13.20
2008,08,14,03,43,13.20
2008,08,14,03,44,13.20
2008,08,14,03,45,13.20
2008,08,14,03,46,13.20
2008,08,14,03,47,13.20
2008,08,14,03,48,13.10
2008,08,14,03,49,13.10
2008,08,14,03,50,13.10
2008,08,14,03,51,13.10
2008,08,14,03,52,13.10
2008,08,14,03,53,13.10
2008,08,14,03,54,13.10
2008,08,14,03,55,13.10
2008,08,14,03,56,13.10
2008,08,14,03,57,13.10
2008,08,14,03,58,13.10
2008,08,14,03,59,13.10
2008,08,14,04,00,13.20
2008,08,14,04,01,13.20
2008,08,14,04,02,13.20
2008,08,14,04,03,13.20
2008,08,14,04,04,13.20
2008,08,14,04,05,13.20
2008,08,14,04,06,13.20
2008,08,14,04,07,13.20
2008,08,14,04,08,13.20
2008,08,14,04,09,13.20
2008,08,14,04,10,13.20
2008,08,14,04,11,13.20
2008,08,14,04,12,13.20
2008,08,14,04,13,13.30
2008,08,14,04,14,13.30
2008,08,14,04,15,13.30
2008,08,14,04,16,13.30
2008,08,14,04,17,13.30
2008,08,14,04,18,13.30
2008,08,14,04,19,13.30
2008,08,14,04,20,13.30
2008,08,14,04,21,13.20
2008,08,14,04,22,13.20
2008,08,14,04,23,13.20
2008,08,14,04,24,13.20
2008,08,14,04,25,13.20
2008,08,14,04,26,13.20
2008,08,14,04,27,13.20
2008,08,14,04,28,13.20
2008,08,14,04,29,13.20
2008,08,14,04,30,13.20
2008,08,14,04,31,13.20
2008,08,14,04,32,13.20
2008,08,14,04,33,13.20
2008,08,14,04,34,13.20
2008,08,14,04,35,13.20
2008,08,14,04,36,13.20
2008,08,14,04,37,13.20
2008,08,14,04,38,13.10
2008,08,14,04,39,13.10
2008,08,14,04,40,13.10
2008,08,14,04,41,13.10
2008,08,14,04,42,13.10
2008,08,14,04,43,13.10
2008,08,14,04,44,13.10
2008,08,14,04,45,13.10
2008,08,14,04,46,13.10
2008,08,14,04,47,13.00
2008,08,14,04,48,13.00
2008,08,14,04,49,13.00
2008,08,14,04,50,13.00
2008,08,14,04,51,12.90
2008,08,14,04,52,12.90
2008,08,14,04,53,12.90
2008,08,14,04,54,12.90
2008,08,14,04,55,12.90
2008,08,14,04,56,12.80
2008,08,14,04,57,12.80
2008,08,14,04,58,12.80
2008,08,14,04,59,12.80
2008,08,14,05,00,12.80
2008,08,14,05,01,12.80
2008,08,14,05,02,12.80
2008,08,14,05,03,12.80
2008,08,14,05,04,12.80
2008,08,14,05,05,12.80
2008,08,14,05,06,12.80
2008,08,14,05,07,12.80
2008,08,14,05,08,12.80
2008,08,14,05,09,12.80
2008,08,14,05,10,12.80
2008,08,14,05,11,12.80
2008,08,14,05,12,12.80
2008,08,14,05,13,12.80
2008,08,14,05,14,12.80
2008,08,14,05,15,12.80
2008,08,14,05,16,12.80
2008,08,14,05,17,12.80
2008,08,14,05,18,12.80
2008,08,14,05,19,12.80
2008,08,14,05,20,12.80
2008,08,14,05,21,12.80
2008,08,14,05,22,12.80
2008,08,14,05,23,12.80
2008,08,14,05,24,12.80
2008,08,14,05,25,12.80
2008,08,14,05,26,12.80
2008,08,14,05,27,12.80
2008,08,14,05,28,12.80
2008,08,14,05,29,12.90
2008,08,14,05,30,12.90
2008,08,14,05,31,12.90
2008,08,14,05,32,12.90
2008,08,14,05,33,12.90
2008,08,14,05,34,12.90
2008,08,14,05,35,12.90
2008,08,14,05,36,12.90
2008,08,14,05,37,12.90
2008,08,14,05,38,12.90
2008,08,14,05,39,12.90
2008,08,14,05,40,12.90
2008,08,14,05,41,12.90
2008,08,14,05,42,12.90
2008,08,14,05,43,12.90
2008,08,14,05,44,12.90
2008,08,14,05,45,12.90
2008,08,14,05,46,12.90
2008,08,14,05,47,12.90
2008,08,14,05,48,12.90
2008,08,14,05,49,12.90
2008,08,14,05,50,12.90
2008,08,14,05,51,12.90
2008,08,14,05,52,12.90
2008,08,14,05,53,12.90
2008,08,14,05,54,12.90
2008,08,14,05,55,12.90
2008,08,14,05,56,12.90
2008,08,14,05,57,12.90
2008,08,14,05,58,12.90
2008,08,14,05,59,12.90
2008,08,14,06,00,12.90
2008,08,14,06,01,12.90
2008,08,14,06,02,12.90
2008,08,14,06,03,12.90
2008,08,14,06,04,12.90
2008,08,14,06,05,12.90
2008,08,14,06,06,12.90
2008,08,14,06,07,12.80
2008,08,14,06,08,12.80
2008,08,14,06,09,12.70
2008,08,14,06,10,12.70
2008,08,14,06,11,12.70
2008,08,14,06,12,12.70
2008,08,14,06,13,12.70
2008,08,14,06,14,12.70
2008,08,14,06,15,12.70
2008,08,14,06,16,12.70
2008,08,14,06,17,12.70
2008,08,14,06,18,12.70
2008,08,14,06,19,12.70
2008,08,14,06,20,12.70
2008,08,14,06,21,12.70
2008,08,14,06,22,12.70
2008,08,14,06,23,12.70
2008,08,14,06,24,12.70
2008,08,14,06,25,12.80
2008,08,14,06,26,12.80
2008,08,14,06,27,12.80
2008,08,14,06,28,12.80
2008,08,14,06,29,12.80
2008,08,14,06,30,12.80
2008,08,14,06,31,12.80
2008,08,14,06,32,12.80
2008,08,14,06,33,12.80
2008,08,14,06,34,12.80
2008,08,14,06,35,12.80
2008,08,14,06,36,12.80
2008,08,14,06,37,12.80
2008,08,14,06,38,12.80
2008,08,14,06,39,12.80
2008,08,14,06,40,12.80
2008,08,14,06,41,12.80
2008,08,14,06,42,12.90
2008,08,14,06,43,12.90
2008,08,14,06,44,12.90
2008,08,14,06,45,12.90
2008,08,14,06,46,12.90
2008,08,14,06,47,12.90
2008,08,14,06,48,12.90
2008,08,14,06,49,12.90
2008,08,14,06,50,12.80
2008,08,14,06,51,12.80
2008,08,14,06,52,12.80
2008,08,14,06,53,12.80
2008,08,14,06,54,12.80
2008,08,14,06,55,12.80
2008,08,14,06,56,12.80
2008,08,14,06,57,12.80
2008,08,14,06,58,12.80
2008,08,14,06,59,12.80
2008,08,14,07,00,12.80
2008,08,14,07,01,12.80
2008,08,14,07,02,12.80
2008,08,14,07,03,12.80
2008,08,14,07,04,12.90
2008,08,14,07,05,12.90
2008,08,14,07,06,12.90
2008,08,14,07,07,13.00
2008,08,14,07,08,13.00
2008,08,14,07,09,13.10
2008,08,14,07,10,13.20
2008,08,14,07,11,13.30
2008,08,14,07,12,13.30
2008,08,14,07,13,13.40
2008,08,14,07,14,13.50
2008,08,14,07,15,13.60
2008,08,14,07,16,13.70
2008,08,14,07,17,13.80
2008,08,14,07,18,13.90
2008,08,14,07,19,14.00
2008,08,14,07,20,14.10
2008,08,14,07,21,14.20
2008,08,14,07,22,14.30
2008,08,14,07,23,14.30
2008,08,14,07,24,14.40
2008,08,14,07,25,14.40
2008,08,14,07,26,14.50
2008,08,14,07,27,14.50
2008,08,14,07,28,14.60
2008,08,14,07,29,14.70
2008,08,14,07,30,14.80
2008,08,14,07,31,15.00
2008,08,14,07,32,15.00
2008,08,14,07,33,15.10
2008,08,14,07,34,15.20
2008,08,14,07,35,15.40
2008,08,14,07,36,15.50
2008,08,14,07,37,15.70
2008,08,14,07,38,15.70
2008,08,14,07,39,15.90
2008,08,14,07,40,16.00
2008,08,14,07,41,16.20
2008,08,14,07,42,16.30
2008,08,14,07,43,16.40
2008,08,14,07,44,16.60
2008,08,14,07,45,16.70
2008,08,14,07,46,16.80
2008,08,14,07,47,17.00
2008,08,14,07,48,17.10
2008,08,14,07,49,17.20
2008,08,14,07,50,17.40
2008,08,14,07,51,17.50
2008,08,14,07,52,17.70
2008,08,14,07,53,17.70
2008,08,14,07,54,17.80
2008,08,14,07,55,17.90
2008,08,14,07,56,17.90
2008,08,14,07,57,17.90
2008,08,14,07,58,17.90
2008,08,14,07,59,17.90
2008,08,14,08,00,17.90
2008,08,14,08,01,18.00
2008,08,14,08,02,18.00
2008,08,14,08,03,18.00
2008,08,14,08,04,18.10
2008,08,14,08,05,18.10
2008,08,14,08,06,18.10
2008,08,14,08,07,18.10
2008,08,14,08,08,18.20
2008,08,14,08,09,18.30
2008,08,14,08,10,18.40
2008,08,14,08,11,18.40
2008,08,14,08,12,18.50
2008,08,14,08,13,18.60
2008,08,14,08,14,18.70
2008,08,14,08,15,18.80
2008,08,14,08,16,18.90
2008,08,14,08,17,19.00
2008,08,14,08,18,19.10
2008,08,14,08,19,19.30
2008,08,14,08,20,19.50
2008,08,14,08,21,19.60
2008,08,14,08,22,19.80
2008,08,14,08,23,19.80
2008,08,14,08,24,20.00
2008,08,14,08,25,20.20
2008,08,14,08,26,20.30
2008,08,14,08,27,20.50
2008,08,14,08,28,20.60
2008,08,14,08,29,20.70
2008,08,14,08,30,20.70
2008,08,14,08,31,20.80
2008,08,14,08,32,20.90
2008,08,14,08,33,20.90
2008,08,14,08,34,20.90
2008,08,14,08,35,21.00
2008,08,14,08,36,21.10
2008,08,14,08,37,21.20
2008,08,14,08,38,21.30
2008,08,14,08,39,21.30
2008,08,14,08,40,21.40
2008,08,14,08,41,21.40
2008,08,14,08,42,21.40
2008,08,14,08,43,21.50
2008,08,14,08,44,21.60
2008,08,14,08,45,21.60
2008,08,14,08,46,21.60
2008,08,14,08,47,21.60
2008,08,14,08,48,21.60
2008,08,14,08,49,21.60
2008,08,14,08,50,21.60
2008,08,14,08,51,21.60
2008,08,14,08,52,21.70
2008,08,14,08,53,21.70
2008,08,14,08,54,21.70
2008,08,14,08,55,21.70
2008,08,14,08,56,21.70
2008,08,14,08,57,21.80
2008,08,14,08,58,21.80
2008,08,14,08,59,21.80
2008,08,14,09,00,21.80
2008,08,14,09,01,21.80
2008,08,14,09,02,21.80
2008,08,14,09,03,21.80
2008,08,14,09,04,21.80
2008,08,14,09,05,21.90
2008,08,14,09,06,21.90
2008,08,14,09,07,21.90
2008,08,14,09,08,21.90
2008,08,14,09,09,21.90
2008,08,14,09,10,21.90
2008,08,14,09,11,21.90
2008,08,14,09,12,21.90
2008,08,14,09,13,22.00
2008,08,14,09,14,22.00
2008,08,14,09,15,22.00
2008,08,14,09,16,22.10
2008,08,14,09,17,22.10
2008,08,14,09,18,22.20
2008,08,14,09,19,22.20
2008,08,14,09,20,22.30
2008,08,14,09,21,22.40
2008,08,14,09,22,22.40
2008,08,14,09,23,22.50
2008,08,14,09,24,22.50
2008,08,14,09,25,22.50
2008,08,14,09,26,22.40
2008,08,14,09,27,22.40
2008,08,14,09,28,22.30
2008,08,14,09,29,22.40
2008,08,14,09,30,22.40
2008,08,14,09,31,22.50
2008,08,14,09,32,22.60
2008,08,14,09,33,22.60
2008,08,14,09,34,22.70
2008,08,14,09,35,22.70
2008,08,14,09,36,22.70
2008,08,14,09,37,22.70
2008,08,14,09,38,22.70
2008,08,14,09,39,22.80
2008,08,14,09,40,22.80
2008,08,14,09,41,22.80
2008,08,14,09,42,22.80
2008,08,14,09,43,22.80
2008,08,14,09,44,22.90
2008,08,14,09,45,22.90
2008,08,14,09,46,22.90
2008,08,14,09,47,23.00
2008,08,14,09,48,23.00
2008,08,14,09,49,23.00
2008,08,14,09,50,23.00
2008,08,14,09,51,23.00
2008,08,14,09,52,23.10
2008,08,14,09,53,23.10
2008,08,14,09,54,23.10
2008,08,14,09,55,23.10
2008,08,14,09,56,23.30
2008,08,14,09,57,23.30
2008,08,14,09,58,23.40
2008,08,14,09,59,23.40
2008,08,14,10,00,23.50
2008,08,14,10,01,23.50
2008,08,14,10,02,23.60
2008,08,14,10,03,23.60
2008,08,14,10,04,23.60
2008,08,14,10,05,23.60
2008,08,14,10,06,23.60
2008,08,14,10,07,23.60
2008,08,14,10,08,23.60
2008,08,14,10,09,23.60
2008,08,14,10,10,23.60
2008,08,14,10,11,23.60
2008,08,14,10,12,23.60
2008,08,14,10,13,23.60
2008,08,14,10,14,23.60
2008,08,14,10,15,23.60
2008,08,14,10,16,23.50
2008,08,14,10,17,23.40
2008,08,14,10,18,23.50
2008,08,14,10,19,23.50
2008,08,14,10,20,23.60
2008,08,14,10,21,23.60
2008,08,14,10,22,23.60
2008,08,14,10,23,23.60
2008,08,14,10,24,23.60
2008,08,14,10,25,23.70
2008,08,14,10,26,23.70
2008,08,14,10,27,23.70
2008,08,14,10,28,23.80
2008,08,14,10,29,23.90
2008,08,14,10,30,23.90
2008,08,14,10,31,23.90
2008,08,14,10,32,23.90
2008,08,14,10,33,23.90
2008,08,14,10,34,23.90
2008,08,14,10,35,23.90
2008,08,14,10,36,23.90
2008,08,14,10,37,24.00
2008,08,14,10,38,24.00
2008,08,14,10,39,24.00
2008,08,14,10,40,24.10
2008,08,14,10,41,24.10
2008,08,14,10,42,24.10
2008,08,14,10,43,24.10
2008,08,14,10,44,24.10
2008,08,14,10,45,24.10
2008,08,14,10,46,24.10
2008,08,14,10,47,24.00
2008,08,14,10,48,23.90
2008,08,14,10,49,23.90
2008,08,14,10,50,24.00
2008,08,14,10,51,24.10
2008,08,14,10,52,24.00
2008,08,14,10,53,23.90
2008,08,14,10,54,23.90
2008,08,14,10,55,23.90
2008,08,14,10,56,23.90
2008,08,14,10,57,23.90
2008,08,14,10,58,23.80
2008,08,14,10,59,23.90
2008,08,14,11,00,23.90
2008,08,14,11,01,24.00
2008,08,14,11,02,24.00
2008,08,14,11,03,23.90
2008,08,14,11,04,23.90
2008,08,14,11,05,24.00
2008,08,14,11,06,24.00
2008,08,14,11,07,24.10
2008,08,14,11,08,24.00
2008,08,14,11,09,24.00
2008,08,14,11,10,24.00
2008,08,14,11,11,24.10
2008,08,14,11,12,24.20
2008,08,14,11,13,24.20
2008,08,14,11,14,24.20
2008,08,14,11,15,24.20
2008,08,14,11,16,24.30
2008,08,14,11,17,24.30
2008,08,14,11,18,24.40
2008,08,14,11,19,24.40
2008,08,14,11,20,24.40
2008,08,14,11,21,24.40
2008,08,14,11,22,24.50
2008,08,14,11,23,24.50
2008,08,14,11,24,24.50
2008,08,14,11,25,24.50
2008,08,14,11,26,24.60
2008,08,14,11,27,24.60
2008,08,14,11,28,24.60
2008,08,14,11,29,24.60
2008,08,14,11,30,24.60
2008,08,14,11,31,24.60
2008,08,14,11,32,24.60
2008,08,14,11,33,24.60
2008,08,14,11,34,24.60
2008,08,14,11,35,24.60
2008,08,14,11,36,24.60
2008,08,14,11,37,24.60
2008,08,14,11,38,24.60
2008,08,14,11,39,24.70
2008,08,14,11,40,24.70
2008,08,14,11,41,24.70
2008,08,14,11,42,24.80
2008,08,14,11,43,24.80
2008,08,14,11,44,24.90
2008,08,14,11,45,25.00
2008,08,14,11,46,25.10
2008,08,14,11,47,25.10
2008,08,14,11,48,25.10
2008,08,14,11,49,25.10
2008,08,14,11,50,25.10
2008,08,14,11,51,25.20
2008,08,14,11,52,25.20
2008,08,14,11,53,25.20
2008,08,14,11,54,25.10
2008,08,14,11,55,25.10
2008,08,14,11,56,25.10
2008,08,14,11,57,25.20
2008,08,14,11,58,25.30
2008,08,14,11,59,25.40
2008,08,14,12,00,25.50
2008,08,14,12,01,25.60
2008,08,14,12,02,25.60
2008,08,14,12,03,25.60
2008,08,14,12,04,25.60
2008,08,14,12,05,25.60
2008,08,14,12,06,25.70
2008,08,14,12,07,25.60
2008,08,14,12,08,25.50
2008,08,14,12,09,25.40
2008,08,14,12,10,25.30
2008,08,14,12,11,25.20
2008,08,14,12,12,25.20
2008,08,14,12,13,25.10
2008,08,14,12,14,25.10
2008,08,14,12,15,25.20
2008,08,14,12,16,25.30
2008,08,14,12,17,25.40
2008,08,14,12,18,25.50
2008,08,14,12,19,25.60
2008,08,14,12,20,25.60
2008,08,14,12,21,25.50
2008,08,14,12,22,25.50
2008,08,14,12,23,25.50
2008,08,14,12,24,25.50
2008,08,14,12,25,25.50
2008,08,14,12,26,25.60
2008,08,14,12,27,25.60
2008,08,14,12,28,25.60
2008,08,14,12,29,25.60
2008,08,14,12,30,25.60
2008,08,14,12,31,25.60
2008,08,14,12,32,25.60
2008,08,14,12,33,25.50
2008,08,14,12,34,25.50
2008,08,14,12,35,25.50
2008,08,14,12,36,25.50
2008,08,14,12,37,25.60
2008,08,14,12,38,25.60
2008,08,14,12,39,25.60
2008,08,14,12,40,25.50
2008,08,14,12,41,25.40
2008,08,14,12,42,25.40
2008,08,14,12,43,25.30
2008,08,14,12,44,25.30
2008,08,14,12,45,25.30
2008,08,14,12,46,25.30
2008,08,14,12,47,25.30
2008,08,14,12,48,25.30
2008,08,14,12,49,25.30
2008,08,14,12,50,25.30
2008,08,14,12,51,25.40
2008,08,14,12,52,25.50
2008,08,14,12,53,25.40
2008,08,14,12,54,25.40
2008,08,14,12,55,25.40
2008,08,14,12,56,25.40
2008,08,14,12,57,25.50
2008,08,14,12,58,25.50
2008,08,14,12,59,25.60
2008,08,14,13,00,25.50
2008,08,14,13,01,25.50
2008,08,14,13,02,25.50
2008,08,14,13,03,25.40
2008,08,14,13,04,25.50
2008,08,14,13,05,25.50
2008,08,14,13,06,25.50
2008,08,14,13,07,25.60
2008,08,14,13,08,25.70
2008,08,14,13,09,25.70
2008,08,14,13,10,25.70
2008,08,14,13,11,25.70
2008,08,14,13,12,25.70
2008,08,14,13,13,25.70
2008,08,14,13,14,25.60
2008,08,14,13,15,25.60
2008,08,14,13,16,25.70
2008,08,14,13,17,25.80
2008,08,14,13,18,25.90
2008,08,14,13,19,26.00
2008,08,14,13,20,26.10
2008,08,14,13,21,26.00
2008,08,14,13,22,25.90
2008,08,14,13,23,25.90
2008,08,14,13,24,25.90
2008,08,14,13,25,26.00
2008,08,14,13,26,26.00
2008,08,14,13,27,26.10
2008,08,14,13,28,26.10
2008,08,14,13,29,26.10
2008,08,14,13,30,26.10
2008,08,14,13,31,26.20
2008,08,14,13,32,26.20
2008,08,14,13,33,26.20
2008,08,14,13,34,26.30
2008,08,14,13,35,26.40
2008,08,14,13,36,26.50
2008,08,14,13,37,26.60
2008,08,14,13,38,26.70
2008,08,14,13,39,26.70
2008,08,14,13,40,26.60
2008,08,14,13,41,26.60
2008,08,14,13,42,26.60
2008,08,14,13,43,26.60
2008,08,14,13,44,26.60
2008,08,14,13,45,26.70
2008,08,14,13,46,26.80
2008,08,14,13,47,26.90
2008,08,14,13,48,26.90
2008,08,14,13,49,26.90
2008,08,14,13,50,26.90
2008,08,14,13,51,26.90
2008,08,14,13,52,26.80
2008,08,14,13,53,26.80
2008,08,14,13,54,26.80
2008,08,14,13,55,26.80
2008,08,14,13,56,26.80
2008,08,14,13,57,26.70
2008,08,14,13,58,26.70
2008,08,14,13,59,26.70
2008,08,14,14,00,26.60
2008,08,14,14,01,26.60
2008,08,14,14,02,26.60
2008,08,14,14,03,26.60
2008,08,14,14,04,26.60
2008,08,14,14,05,26.60
2008,08,14,14,06,26.70
2008,08,14,14,07,26.80
2008,08,14,14,08,26.80
2008,08,14,14,09,26.80
2008,08,14,14,10,26.80
2008,08,14,14,11,26.70
2008,08,14,14,12,26.60
2008,08,14,14,13,26.70
2008,08,14,14,14,26.70
2008,08,14,14,15,26.80
2008,08,14,14,16,26.80
2008,08,14,14,17,26.80
2008,08,14,14,18,26.90
2008,08,14,14,19,26.90
2008,08,14,14,20,26.90
2008,08,14,14,21,26.90
2008,08,14,14,22,26.80
2008,08,14,14,23,26.70
2008,08,14,14,24,26.60
2008,08,14,14,25,26.70
2008,08,14,14,26,26.70
2008,08,14,14,27,26.80
2008,08,14,14,28,26.80
2008,08,14,14,29,26.80
2008,08,14,14,30,26.90
2008,08,14,14,31,27.00
2008,08,14,14,32,27.10
2008,08,14,14,33,27.20
2008,08,14,14,34,27.30
2008,08,14,14,35,27.30
2008,08,14,14,36,27.30
2008,08,14,14,37,27.30
2008,08,14,14,38,27.20
2008,08,14,14,39,27.20
2008,08,14,14,40,27.20
2008,08,14,14,41,27.30
2008,08,14,14,42,27.30
2008,08,14,14,43,27.30
2008,08,14,14,44,27.30
2008,08,14,14,45,27.30
2008,08,14,14,46,27.40
2008,08,14,14,47,27.40
2008,08,14,14,48,27.40
2008,08,14,14,49,27.40
2008,08,14,14,50,27.50
2008,08,14,14,51,27.50
2008,08,14,14,52,27.40
2008,08,14,14,53,27.40
2008,08,14,14,54,27.50
2008,08,14,14,55,27.50
2008,08,14,14,56,27.50
2008,08,14,14,57,27.50
2008,08,14,14,58,27.60
2008,08,14,14,59,27.60
2008,08,14,15,00,27.60
2008,08,14,15,01,27.70
2008,08,14,15,02,27.70
2008,08,14,15,03,27.80
2008,08,14,15,04,27.80
2008,08,14,15,05,27.80
2008,08,14,15,06,27.80
2008,08,14,15,07,27.80
2008,08,14,15,08,27.90
2008,08,14,15,09,28.00
2008,08,14,15,10,28.00
2008,08,14,15,11,28.10
2008,08,14,15,12,28.10
2008,08,14,15,13,28.20
2008,08,14,15,14,28.30
2008,08,14,15,15,28.30
2008,08,14,15,16,28.40
2008,08,14,15,17,28.40
2008,08,14,15,18,28.40
2008,08,14,15,19,28.30
2008,08,14,15,20,28.30
2008,08,14,15,21,28.20
2008,08,14,15,22,28.20
2008,08,14,15,23,28.20
2008,08,14,15,24,28.20
2008,08,14,15,25,28.20
2008,08,14,15,26,28.00
2008,08,14,15,27,28.00
2008,08,14,15,28,28.00
2008,08,14,15,29,27.90
2008,08,14,15,30,27.90
2008,08,14,15,31,27.90
2008,08,14,15,32,28.00
2008,08,14,15,33,28.00
2008,08,14,15,34,28.10
2008,08,14,15,35,28.10
2008,08,14,15,36,28.10
2008,08,14,15,37,28.10
2008,08,14,15,38,28.10
2008,08,14,15,39,28.10
2008,08,14,15,40,28.10
2008,08,14,15,41,28.10
2008,08,14,15,42,28.00
2008,08,14,15,43,28.00
2008,08,14,15,44,28.10
2008,08,14,15,45,28.10
2008,08,14,15,46,28.10
2008,08,14,15,47,28.10
2008,08,14,15,48,28.10
2008,08,14,15,49,28.10
2008,08,14,15,50,28.10
2008,08,14,15,51,28.10
2008,08,14,15,52,28.10
2008,08,14,15,53,28.10
2008,08,14,15,54,28.10
2008,08,14,15,55,28.10
2008,08,14,15,56,28.20
2008,08,14,15,57,28.20
2008,08,14,15,58,28.20
2008,08,14,15,59,28.20
2008,08,14,16,00,28.30
2008,08,14,16,01,28.30
2008,08,14,16,02,28.40
2008,08,14,16,03,28.40
2008,08,14,16,04,28.40
2008,08,14,16,05,28.50
2008,08,14,16,06,28.50
2008,08,14,16,07,28.40
2008,08,14,16,08,28.50
2008,08,14,16,09,28.50
2008,08,14,16,10,28.50
2008,08,14,16,11,28.50
2008,08,14,16,12,28.40
2008,08,14,16,13,28.40
2008,08,14,16,14,28.40
2008,08,14,16,15,28.40
2008,08,14,16,16,28.50
2008,08,14,16,17,28.50
2008,08,14,16,18,28.70
2008,08,14,16,19,28.70
2008,08,14,16,20,28.60
2008,08,14,16,21,28.60
2008,08,14,16,22,28.50
2008,08,14,16,23,28.40
2008,08,14,16,24,28.40
2008,08,14,16,25,28.60
2008,08,14,16,26,28.60
2008,08,14,16,27,28.60
2008,08,14,16,28,28.70
2008,08,14,16,29,28.70
2008,08,14,16,30,28.70
2008,08,14,16,31,28.60
2008,08,14,16,32,28.60
2008,08,14,16,33,28.60
2008,08,14,16,34,28.50
2008,08,14,16,35,28.50
2008,08,14,16,36,28.60
2008,08,14,16,37,28.60
2008,08,14,16,38,28.50
2008,08,14,16,39,28.50
2008,08,14,16,40,28.50
2008,08,14,16,41,28.60
2008,08,14,16,42,28.60
2008,08,14,16,43,28.70
2008,08,14,16,44,28.70
2008,08,14,16,45,28.70
2008,08,14,16,46,28.70
2008,08,14,16,47,28.80
2008,08,14,16,48,28.80
2008,08,14,16,49,28.70
2008,08,14,16,50,28.60
2008,08,14,16,51,28.50
2008,08,14,16,52,28.50
2008,08,14,16,53,28.50
2008,08,14,16,54,28.40
2008,08,14,16,55,28.40
2008,08,14,16,56,28.40
2008,08,14,16,57,28.40
2008,08,14,16,58,28.30
2008,08,14,16,59,28.30
2008,08,14,17,00,28.30
2008,08,14,17,01,28.40
2008,08,14,17,02,28.40
2008,08,14,17,03,28.30
2008,08,14,17,04,28.10
2008,08,14,17,05,28.00
2008,08,14,17,06,27.90
2008,08,14,17,07,27.80
2008,08,14,17,08,27.80
2008,08,14,17,09,27.80
2008,08,14,17,10,27.80
2008,08,14,17,11,27.90
2008,08,14,17,12,28.00
2008,08,14,17,13,28.10
2008,08,14,17,14,28.10
2008,08,14,17,15,28.10
2008,08,14,17,16,28.10
2008,08,14,17,17,28.10
2008,08,14,17,18,28.10
2008,08,14,17,19,28.00